SCP
0 0 0 0 0 0 0 0 0 0 0 0 0 0 0 0 0 0 0 0 0 0 0 0 0 0 0 0 0 0 0 0 0 0 0 0 0 0 0 0 0 0 0
0 0 0 0 0 0 0 0 0 0 0 0 0 0 0 0 0 0 0 0 0 0 0 0 0 0 0 0 0 0 0 0 0 0 0 0 0 0 0 0 0 0 0
0 0 0 0 0 0 0 0 0 0 0 0 0 0 0 0 0 0 0 0 0 0 0 0 0 0 0 0 0 0 0 0 0 0 0 0 0 0 0 0 -0 -0 -0
0 0 0 0 0 0 0 0 0 0 0 0 0 0 0 0 0 0 0 0 0 0 0 0 0 0 0 0 0 0 0 0 0 0 -0 -0 -0 -0 -0 -0 -0 -0 -0
0 0 0 0 0 0 0 0 0 0 0 0 0 0 0 0 0 0 0 0 0 0 0 0 0 0 0 0 0 0 0 0 0 0 0 -0 -0 -0 -0 -0 -0 -0 -0
0 0 0 0 0 0 0 0 0 0 0 0 0 0 0 0 0 0 0 0 0 0 0 0 0 0 0 0 0 0 0 0 0 0 0 0 -0 -0 -0 -0 -0 -0 -0
0 0 0 0 0 0 0 0 0 0 0 0 0 0 0 0 0 0 0 0 0 0 0 0 0 0 0 0 0 0 0 0 0 0 0 0 0 -0 -0 -0 -0 -0 -0
0 0 0 0 0 0 0 0 0 0 0 0 0 0 0 0 0 0 0 0 0 0 0 0 0 0 0 0 0 0 0 0 0 0 0 0 0 0 0 -0 -0 -0 -0
0 0 0 0 0 0 0 0 0 0 0 0 0 0 0 0 0 0 0 0 0 0 0 0 0 0 0 0 0 0 0 0 0 0 0 0 0 0 0 0 0 0 0
0 0 0 0 0 0 0 0 0 0 0 0 0 0 0 0 0 0 0 0 0 0 0 0 0 0 0 0 0 0 0 0 0 0 0 0 0 0 0 0 0 0 0
0 0 0 0 0 0 0 0 0 0 0 0 0 0 0 0 0 0 0 0 0 0 0 0 0 0 0 0 0 0 0 0 0 0 0 0 0 0 0 0 0 0 0
0 0 0 0 0 0 0 0 0 0 0 0 0 0 0 0 0 0 0 0 0 0 0 0 0 0 0 0 0 0 0 0 0 0 0 0 0 0 0 0 0 0 0
0 0 0 0 0 0 0 0 0 0 0 0 0 0 0 0 0 0 0 0 0 0 0 0 0 0 0 0 0 0 0 0 0 0 0 0 0 0 0 0 0 0 0
0 0 0 0 0 0 0 0 0 0 0 0 0 0 0 0 0 0 0 0 0 0 0 0 0 0 0 0 0 0 0 0 0 0 0 0 0 0 0 0 0 0 0
0 0 0 0 0 0 0 0 0 0 0 0 0 0 0 0 0 0 0 0 0 0 0 0 0 0 0 0 0 0 0 0 0 0 0 0 0 0 0 0 0 0 0
0 0 0 0 0 0 0 0 0 0 0 0 0 0 0 0 0 0 0 0 0 0 0 0 0 0 0 0 0 0 0 0 0 0 0 0 0 0 0 0 0 0 0
0 0 0 0 0 0 0 0 0 0 0 0 0 0 0 0 0 0 0 0 0 0 0 0 0 0 0 0 0 0 0 0 0 0 0 0 0 0 0 0 0 0 0
0 0 0 0 0 0 0 0 0 0 0 0 0 0 0 0 0 0 0 0 0 0 0 0 0 0 0 0 0 0 0 0 0 0 0 0 0 0 0 0 0 0 0
0 0 0 0 0 0 0 0 0 0 0 0 0 0 0 0 0 0 0 0 0 0 0 0 0 0 0 0 0 0 0 0 0 0 0 0 0 0 0 0 0 0 0
0 0 0 0 0 0 0 0 0 0 0 0 0 0 0 0 0 0 0 0 0 0 0 0 0 0 0 0 0 0 0 0 0 0 0 0 0 0 0 0 0 0 0
0 0 0 0 0 0 0 0 0 0 0 0 0 0 0 0 0 0 0 0 0 0 0 0 0 0 0 0 0 0 0 0 0 0 0 0 0 0 0 0 0 0 0
0 0 0 0 0 0 0 0 0 0 0 0 0 0 0 0 0 0 0 0 0 0 0 0 0 0 0 0 0 0 0 0 0 0 0 0 0 0 0 0 0 0 0
0 0 0 0 0 0 0 0 0 0 0 0 0 0 0 0 0 0 0 0 0 0 0 0 0 0 0 0 0 0 0 0 0 0 0 0 0 0 0 0 0 0 0
0 0 0 0 0 0 0 0 0 0 0 0 0 0 0 0 0 0 0 0 0 0 0 0 0 0 0 0 0 0 0 0 0 0 0 0 0 0 0 0 0 0 0
0 0 0 0 0 0 0 0 0 0 0 0 0 0 0 0 0 0 0 0 0 0 0 0 0 0 0 0 0 0 0 0 0 0 0 0 0 0 0 0 0 0 0
0 0 0 0 0 0 0 0 0 0 0 0 0 0 0 0 0 0 0 0 0 0 0 0 0 0 0 0 0 0 0 0 0 0 0 0 0 0 0 0 0 0 0
Wind_Speed_500mb
32 30 33 33 31 30 29 28 29 30 31 32 33 33 33 33 34 35 34 33 34 32 29 28 27 26 24 25 24 25 23 20 17 11 10 9 6 4 2 1 2 2 4
35 34 32 35 35 34 33 33 33 34 36 37 37 38 37 38 39 41 41 39 37 37 36 34 32 32 32 29 30 28 29 30 30 26 22 16 13 10 8 8 7 9 7
35 36 36 35 35 35 35 38 38 39 40 40 40 41 42 43 46 47 47 47 45 43 42 40 38 37 37 36 35 36 37 34 37 33 31 30 28 29 26 19 14 12 16
39 38 39 39 37 41 41 42 43 45 45 44 44 44 47 48 49 51 52 51 52 50 48 47 46 44 43 44 42 43 42 43 40 43 39 36 32 31 27 27 24 22 23
45 45 44 42 39 43 46 46 47 48 48 47 49 50 54 56 55 56 57 56 56 56 55 53 51 51 50 49 49 47 48 48 47 46 48 44 39 36 35 33 32 31 25
49 49 51 51 46 46 49 49 48 49 50 49 50 55 58 58 63 63 61 59 60 59 59 60 59 59 57 56 54 53 52 52 52 50 53 51 47 43 40 42 39 33 33
55 54 54 55 54 53 52 51 50 52 53 52 50 55 57 57 57 56 55 57 59 60 63 63 63 64 62 61 60 59 56 56 54 54 52 54 50 46 44 42 42 44 42
56 57 57 57 58 57 55 56 57 55 56 52 50 33 33 34 50 31 29 32 34 37 43 51 57 58 56 58 59 59 58 59 57 55 54 55 52 49 46 45 44 46 50
51 54 59 60 62 62 60 59 59 59 57 50 56 37 22 21 38 47 39 40 50 55 52 44 44 52 52 51 54 57 59 62 60 58 56 58 60 54 55 54 52 52 54
40 40 41 47 52 58 61 60 61 62 59 58 55 63 61 54 33 38 35 38 54 63 65 55 53 55 59 60 59 59 58 59 63 62 63 61 65 60 61 56 57 57 57
32 33 35 36 38 40 45 48 52 57 57 61 60 61 65 60 60 58 58 55 45 44 61 66 64 67 67 65 63 65 63 61 64 67 69 64 69 69 69 66 65 67 61
32 32 35 35 34 34 39 41 43 47 52 54 56 56 62 63 61 61 66 75 79 66 55 61 70 71 70 71 75 76 72 71 70 72 75 73 75 76 75 73 71 67 66
25 25 29 33 38 39 41 40 42 40 41 47 46 49 47 55 60 57 66 75 78 81 81 75 78 77 74 70 71 76 82 84 79 81 83 80 74 77 78 82 81 76 69
31 33 37 37 36 34 41 44 46 48 47 49 53 51 48 62 53 51 56 65 76 70 80 81 68 72 73 69 60 54 70 81 93 89 92 92 82 78 76 81 86 86 80
32 33 36 39 42 40 42 44 50 52 51 55 61 61 66 66 62 67 61 57 57 61 67 73 66 70 72 70 67 59 63 65 78 92 97 98 95 88 84 79 83 84 83
18 20 21 22 25 28 34 37 44 50 54 58 60 62 68 70 69 68 69 68 70 74 77 75 70 74 82 75 74 68 70 65 67 75 91 99 98 98 92 82 84 84 83
10 14 17 21 26 29 32 36 40 45 49 55 57 63 68 66 72 72 70 73 79 75 85 90 79 69 73 72 67 68 71 72 75 74 82 94 99 98 96 89 88 88 86
17 22 26 28 31 35 38 42 46 49 53 56 57 57 64 67 70 72 79 80 81 82 89 96 99 88 84 80 86 66 70 78 81 82 79 94 99 94 98 96 94 93 92
32 37 40 43 44 46 48 48 52 55 57 62 64 63 66 65 70 73 77 79 81 83 83 89 99 94 95 94 93 86 76 72 84 85 85 102 104 106 101 100 98 96 95
42 44 48 50 51 52 52 53 56 60 64 68 70 72 74 75 76 70 71 74 79 82 84 89 93 94 92 94 100 99 94 99 90 84 86 89 111 118 117 109 103 100 100
45 46 47 47 48 48 46 49 54 58 63 69 72 75 77 76 77 78 80 87 87 86 80 82 92 93 95 96 104 100 105 105 109 113 106 112 109 113 127 121 116 112 106
39 40 41 44 44 43 42 43 48 55 57 61 66 69 72 75 77 78 80 83 85 89 98 89 89 93 107 109 106 106 105 111 112 116 120 123 117 120 126 134 129 123 110
39 42 44 46 48 46 47 50 51 56 58 59 63 66 67 66 69 73 75 78 86 92 95 86 96 110 99 103 89 100 102 109 123 112 92 105 109 121 126 138 140 131 113
46 49 50 51 55 52 51 54 57 60 62 62 63 65 68 70 69 71 79 84 86 89 86 89 92 111 107 115 98 96 104 115 121 127 122 118 121 127 119 132 147 135 115
57 59 61 61 62 62 60 63 63 65 67 68 68 69 70 73 71 70 75 83 88 93 91 91 92 102 106 113 113 99 108 104 115 113 117 121 111 113 115 126 129 121 110
64 67 71 71 73 75 71 68 68 72 78 80 79 78 74 71 71 71 70 75 95 101 99 101 102 108 108 112 115 95 114 109 106 98 119 105 111 111 93 113 118 121 109
Wind_Direction_500mb
252 250 245 245 249 252 252 255 255 255 256 258 259 261 264 269 272 275 276 273 271 269 266 264 264 264 260 261 253 247 256 252 246 250 245 230 214 229 204 267 261 221 165
253 253 254 249 248 250 252 255 259 261 262 263 263 265 265 265 267 269 271 270 266 267 265 264 262 264 265 262 261 253 250 255 252 247 244 242 234 231 247 253 266 269 250
256 255 254 254 252 252 256 258 261 263 267 268 268 269 269 268 267 268 269 269 267 263 264 264 262 262 265 264 261 255 246 247 258 246 246 247 252 258 258 256 256 264 257
256 257 258 258 256 256 260 263 264 267 270 272 274 274 274 271 271 270 269 269 269 268 265 263 264 262 262 264 263 260 251 244 244 256 252 247 248 252 257 262 262 258 256
253 255 258 259 257 258 260 262 265 268 272 277 281 280 279 278 276 274 272 271 271 270 268 266 263 263 261 262 263 261 257 248 244 246 253 257 253 247 247 245 245 255 250
254 255 258 260 259 259 259 261 264 269 273 275 279 282 284 284 285 282 280 277 274 271 268 265 264 261 262 262 262 261 257 254 247 245 249 252 252 249 247 243 241 244 249
257 257 259 262 263 261 265 267 267 267 269 275 276 282 287 287 286 288 284 276 273 271 267 263 262 264 264 262 261 258 256 254 250 248 245 249 249 250 247 244 245 241 237
261 261 261 263 266 268 267 267 268 267 270 267 270 275 292 289 292 287 287 283 283 279 275 267 262 263 265 264 260 256 255 253 251 249 244 246 247 249 247 244 242 244 243
259 263 262 264 266 268 267 268 269 269 268 271 271 253 272 268 290 289 281 275 276 275 270 271 268 270 267 264 263 256 251 252 252 249 239 244 251 251 250 249 246 248 242
256 262 266 263 263 266 268 267 268 270 268 267 267 273 263 261 276 289 281 278 275 277 278 274 269 268 270 269 265 261 254 257 254 246 238 244 253 255 253 251 245 251 241
260 258 262 265 267 269 270 268 269 271 271 271 271 271 278 276 270 264 281 287 287 278 284 282 278 277 275 270 265 264 260 258 254 247 242 244 250 250 251 251 249 251 242
253 251 252 255 257 265 272 273 271 271 273 274 274 274 268 272 280 278 273 287 291 290 285 285 288 286 282 275 270 267 266 260 256 250 245 246 246 246 249 247 249 249 242
262 255 253 253 251 250 250 255 262 266 268 271 273 276 278 281 281 283 281 278 283 297 293 290 295 297 295 286 276 270 266 261 256 253 249 249 250 247 246 246 248 248 247
245 248 252 255 258 259 257 257 257 258 261 258 261 259 265 273 268 278 284 294 284 283 291 292 294 299 301 298 293 286 272 263 256 255 252 250 252 251 250 244 244 244 245
249 253 260 263 266 263 265 263 263 262 266 262 262 266 266 263 266 273 270 274 278 273 286 289 285 297 299 297 295 292 280 273 262 253 252 251 251 250 253 249 243 242 242
246 255 263 273 278 277 270 264 266 268 269 267 266 266 267 269 269 268 268 270 271 274 269 277 284 294 294 295 293 288 283 275 265 260 253 252 251 251 251 250 244 242 242
273 284 288 290 292 289 285 279 275 272 265 272 276 277 273 274 277 276 273 271 268 269 267 279 281 280 282 295 297 294 285 282 258 255 258 252 251 250 249 248 244 243 242
297 302 301 299 296 294 291 288 285 282 279 276 272 269 274 277 274 274 273 273 275 273 272 272 283 284 283 278 288 294 300 290 283 263 259 257 253 250 249 248 244 244 242
296 299 300 300 298 293 289 283 280 277 275 274 272 270 271 269 271 275 278 275 271 268 265 266 275 280 283 282 281 280 278 280 282 277 273 256 253 248 246 247 246 245 245
299 300 302 300 297 295 293 285 277 273 271 269 269 269 268 267 268 266 268 274 277 277 275 275 269 273 279 272 280 277 277 274 272 278 275 267 258 251 245 242 242 242 242
303 307 308 307 304 300 298 295 291 284 278 275 273 272 272 272 269 267 267 267 265 266 271 272 274 272 268 271 269 274 278 279 280 274 277 269 262 256 249 241 239 237 238
318 318 318 318 318 318 316 310 304 297 293 291 288 283 280 281 281 278 273 268 267 269 266 263 265 265 268 268 272 274 271 273 267 277 269 267 263 261 255 247 241 237 234
325 324 326 325 323 325 324 318 312 306 305 304 302 301 299 299 298 294 289 282 274 269 267 271 266 263 268 268 271 272 270 268 266 271 263 267 266 260 259 252 243 238 233
330 329 328 327 325 328 326 321 317 313 310 308 306 304 303 305 305 306 301 296 290 283 280 276 274 275 274 271 263 267 273 275 275 271 259 260 260 265 264 256 247 236 230
330 328 326 324 323 324 323 320 318 313 310 307 306 304 304 304 305 305 301 296 291 287 291 289 282 275 272 270 266 266 264 265 268 262 263 257 252 258 256 257 250 237 228
323 322 320 321 320 319 319 317 317 315 310 308 305 301 300 301 302 300 295 291 291 294 297 293 286 282 278 271 268 263 260 257 258 262 260 250 253 247 242 248 245 229 221
Wind_Speed_850mb
32 30 33 33 31 30 29 28 29 30 31 32 33 33 33 33 34 35 34 33 34 32 29 28 27 26 24 25 24 25 23 20 17 11 10 9 6 4 2 1 2 2 4
35 34 32 35 35 34 33 33 33 34 36 37 37 38 37 38 39 41 41 39 37 37 36 34 32 32 32 29 30 28 29 30 30 26 22 16 13 10 8 8 7 9 7
35 36 36 35 35 35 35 38 38 39 40 40 40 41 42 43 46 47 47 47 45 43 42 40 38 37 37 36 35 36 37 34 37 33 31 30 28 29 26 19 14 12 16
39 38 39 39 37 41 41 42 43 45 45 44 44 44 47 48 49 51 52 51 52 50 48 47 46 44 43 44 42 43 42 43 40 43 39 36 32 31 27 27 24 22 23
45 45 44 42 39 43 46 46 47 48 48 47 49 50 54 56 55 56 57 56 56 56 55 53 51 51 50 49 49 47 48 48 47 46 48 44 39 36 35 33 32 31 25
49 49 51 51 46 46 49 49 48 49 50 49 50 55 58 58 63 63 61 59 60 59 59 60 59 59 57 56 54 53 52 52 52 50 53 51 47 43 40 42 39 33 33
55 54 54 55 54 53 52 51 50 52 53 52 50 55 57 57 57 56 55 57 59 60 63 63 63 64 62 61 60 59 56 56 54 54 52 54 50 46 44 42 42 44 42
56 57 57 57 58 57 55 56 57 55 56 52 50 33 33 34 50 31 29 32 34 37 43 51 57 58 56 58 59 59 58 59 57 55 54 55 52 49 46 45 44 46 50
51 54 59 60 62 62 60 59 59 59 57 50 56 37 22 21 38 47 39 40 50 55 52 44 44 52 52 51 54 57 59 62 60 58 56 58 60 54 55 54 52 52 54
40 40 41 47 52 58 61 60 61 62 59 58 55 63 61 54 33 38 35 38 54 63 65 55 53 55 59 60 59 59 58 59 63 62 63 61 65 60 61 56 57 57 57
32 33 35 36 38 40 45 48 52 57 57 61 60 61 65 60 60 58 58 55 45 44 61 66 64 67 67 65 63 65 63 61 64 67 69 64 69 69 69 66 65 67 61
32 32 35 35 34 34 39 41 43 47 52 54 56 56 62 63 61 61 66 75 79 66 55 61 70 71 70 71 75 76 72 71 70 72 75 73 75 76 75 73 71 67 66
25 25 29 33 38 39 41 40 42 40 41 47 46 49 47 55 60 57 66 75 78 81 81 75 78 77 74 70 71 76 82 84 79 81 83 80 74 77 78 82 81 76 69
31 33 37 37 36 34 41 44 46 48 47 49 53 51 48 62 53 51 56 65 76 70 80 81 68 72 73 69 60 54 70 81 93 89 92 92 82 78 76 81 86 86 80
32 33 36 39 42 40 42 44 50 52 51 55 61 61 66 66 62 67 61 57 57 61 67 73 66 70 72 70 67 59 63 65 78 92 97 98 95 88 84 79 83 84 83
18 20 21 22 25 28 34 37 44 50 54 58 60 62 68 70 69 68 69 68 70 74 77 75 70 74 82 75 74 68 70 65 67 75 91 99 98 98 92 82 84 84 83
10 14 17 21 26 29 32 36 40 45 49 55 57 63 68 66 72 72 70 73 79 75 85 90 79 69 73 72 67 68 71 72 75 74 82 94 99 98 96 89 88 88 86
17 22 26 28 31 35 38 42 46 49 53 56 57 57 64 67 70 72 79 80 81 82 89 96 99 88 84 80 86 66 70 78 81 82 79 94 99 94 98 96 94 93 92
32 37 40 43 44 46 48 48 52 55 57 62 64 63 66 65 70 73 77 79 81 83 83 89 99 94 95 94 93 86 76 72 84 85 85 102 104 106 101 100 98 96 95
42 44 48 50 51 52 52 53 56 60 64 68 70 72 74 75 76 70 71 74 79 82 84 89 93 94 92 94 100 99 94 99 90 84 86 89 111 118 117 109 103 100 100
45 46 47 47 48 48 46 49 54 58 63 69 72 75 77 76 77 78 80 87 87 86 80 82 92 93 95 96 104 100 105 105 109 113 106 112 109 113 127 121 116 112 106
39 40 41 44 44 43 42 43 48 55 57 61 66 69 72 75 77 78 80 83 85 89 98 89 89 93 107 109 106 106 105 111 112 116 120 123 117 120 126 134 129 123 110
39 42 44 46 48 46 47 50 51 56 58 59 63 66 67 66 69 73 75 78 86 92 95 86 96 110 99 103 89 100 102 109 123 112 92 105 109 121 126 138 140 131 113
46 49 50 51 55 52 51 54 57 60 62 62 63 65 68 70 69 71 79 84 86 89 86 89 92 111 107 115 98 96 104 115 121 127 122 118 121 127 119 132 147 135 115
57 59 61 61 62 62 60 63 63 65 67 68 68 69 70 73 71 70 75 83 88 93 91 91 92 102 106 113 113 99 108 104 115 113 117 121 111 113 115 126 129 121 110
64 67 71 71 73 75 71 68 68 72 78 80 79 78 74 71 71 71 70 75 95 101 99 101 102 108 108 112 115 95 114 109 106 98 119 105 111 111 93 113 118 121 109
Wind_Direction_850mb
252 250 245 245 249 252 252 255 255 255 256 258 259 261 264 269 272 275 276 273 271 269 266 264 264 264 260 261 253 247 256 252 246 250 245 230 214 229 204 267 261 221 165
253 253 254 249 248 250 252 255 259 261 262 263 263 265 265 265 267 269 271 270 266 267 265 264 262 264 265 262 261 253 250 255 252 247 244 242 234 231 247 253 266 269 250
256 255 254 254 252 252 256 258 261 263 267 268 268 269 269 268 267 268 269 269 267 263 264 264 262 262 265 264 261 255 246 247 258 246 246 247 252 258 258 256 256 264 257
256 257 258 258 256 256 260 263 264 267 270 272 274 274 274 271 271 270 269 269 269 268 265 263 264 262 262 264 263 260 251 244 244 256 252 247 248 252 257 262 262 258 256
253 255 258 259 257 258 260 262 265 268 272 277 281 280 279 278 276 274 272 271 271 270 268 266 263 263 261 262 263 261 257 248 244 246 253 257 253 247 247 245 245 255 250
254 255 258 260 259 259 259 261 264 269 273 275 279 282 284 284 285 282 280 277 274 271 268 265 264 261 262 262 262 261 257 254 247 245 249 252 252 249 247 243 241 244 249
257 257 259 262 263 261 265 267 267 267 269 275 276 282 287 287 286 288 284 276 273 271 267 263 262 264 264 262 261 258 256 254 250 248 245 249 249 250 247 244 245 241 237
261 261 261 263 266 268 267 267 268 267 270 267 270 275 292 289 292 287 287 283 283 279 275 267 262 263 265 264 260 256 255 253 251 249 244 246 247 249 247 244 242 244 243
259 263 262 264 266 268 267 268 269 269 268 271 271 253 272 268 290 289 281 275 276 275 270 271 268 270 267 264 263 256 251 252 252 249 239 244 251 251 250 249 246 248 242
256 262 266 263 263 266 268 267 268 270 268 267 267 273 263 261 276 289 281 278 275 277 278 274 269 268 270 269 265 261 254 257 254 246 238 244 253 255 253 251 245 251 241
260 258 262 265 267 269 270 268 269 271 271 271 271 271 278 276 270 264 281 287 287 278 284 282 278 277 275 270 265 264 260 258 254 247 242 244 250 250 251 251 249 251 242
253 251 252 255 257 265 272 273 271 271 273 274 274 274 268 272 280 278 273 287 291 290 285 285 288 286 282 275 270 267 266 260 256 250 245 246 246 246 249 247 249 249 242
262 255 253 253 251 250 250 255 262 266 268 271 273 276 278 281 281 283 281 278 283 297 293 290 295 297 295 286 276 270 266 261 256 253 249 249 250 247 246 246 248 248 247
245 248 252 255 258 259 257 257 257 258 261 258 261 259 265 273 268 278 284 294 284 283 291 292 294 299 301 298 293 286 272 263 256 255 252 250 252 251 250 244 244 244 245
249 253 260 263 266 263 265 263 263 262 266 262 262 266 266 263 266 273 270 274 278 273 286 289 285 297 299 297 295 292 280 273 262 253 252 251 251 250 253 249 243 242 242
246 255 263 273 278 277 270 264 266 268 269 267 266 266 267 269 269 268 268 270 271 274 269 277 284 294 294 295 293 288 283 275 265 260 253 252 251 251 251 250 244 242 242
273 284 288 290 292 289 285 279 275 272 265 272 276 277 273 274 277 276 273 271 268 269 267 279 281 280 282 295 297 294 285 282 258 255 258 252 251 250 249 248 244 243 242
297 302 301 299 296 294 291 288 285 282 279 276 272 269 274 277 274 274 273 273 275 273 272 272 283 284 283 278 288 294 300 290 283 263 259 257 253 250 249 248 244 244 242
296 299 300 300 298 293 289 283 280 277 275 274 272 270 271 269 271 275 278 275 271 268 265 266 275 280 283 282 281 280 278 280 282 277 273 256 253 248 246 247 246 245 245
299 300 302 300 297 295 293 285 277 273 271 269 269 269 268 267 268 266 268 274 277 277 275 275 269 273 279 272 280 277 277 274 272 278 275 267 258 251 245 242 242 242 242
303 307 308 307 304 300 298 295 291 284 278 275 273 272 272 272 269 267 267 267 265 266 271 272 274 272 268 271 269 274 278 279 280 274 277 269 262 256 249 241 239 237 238
318 318 318 318 318 318 316 310 304 297 293 291 288 283 280 281 281 278 273 268 267 269 266 263 265 265 268 268 272 274 271 273 267 277 269 267 263 261 255 247 241 237 234
325 324 326 325 323 325 324 318 312 306 305 304 302 301 299 299 298 294 289 282 274 269 267 271 266 263 268 268 271 272 270 268 266 271 263 267 266 260 259 252 243 238 233
330 329 328 327 325 328 326 321 317 313 310 308 306 304 303 305 305 306 301 296 290 283 280 276 274 275 274 271 263 267 273 275 275 271 259 260 260 265 264 256 247 236 230
330 328 326 324 323 324 323 320 318 313 310 307 306 304 304 304 305 305 301 296 291 287 291 289 282 275 272 270 266 266 264 265 268 262 263 257 252 258 256 257 250 237 228
323 322 320 321 320 319 319 317 317 315 310 308 305 301 300 301 302 300 295 291 291 294 297 293 286 282 278 271 268 263 260 257 258 262 260 250 253 247 242 248 245 229 221